Regional Weather Roundup
Issued by NWS Charleston, SC

Current Version | Previous Version | Text Only | Print | Product List | Glossary Off
Versions: 1 2 3 4 5 6 7 8 9 10 11 12 13 14 15 16 17 18 19 20 21 22 23 24 25 26 27 28 29 30 31 32 33 34 35 36 37 38 39 40 41 42 43 44 45 46 47 48 49 50

000
ASUS42 KCHS 260327
RWRCHS

REGIONAL WEATHER ROUNDUP
NATIONAL WEATHER SERVICE CHARLESTON SC
1100 PM EDT SAT MAR 25 2017

NOTE: "FAIR" INDICATES FEW OR NO CLOUDS BELOW 12,000 FEET WITH NO
SIGNIFICANT WEATHER AND/OR OBSTRUCTIONS TO VISIBILITY.

NOT ALL STATIONS ARE QUALITY CONTROLLED. USE DATA WITH CAUTION...
ESPECIALLY DEWPOINT OBSERVATIONS.

SCZ027-030-031-034>040-042>050-260400-
...SOUTHEAST SOUTH CAROLINA...

CITY           SKY/WX    TMP DP  RH WIND       PRES   REMARKS
N CHARLESTON   PTCLDY    59  55  87 CALM      30.23S
WATERFRONT PRK   N/A     62  60  93 VRB2      30.23S
JOHNS ISLAND   FAIR      59  57  94 CALM      30.24R
PINOPOLIS        N/A     61  57  88 CALM      30.15R
MONCKS CORNER  FAIR      55  52  88 CALM      30.24S
SUMMERVILLE    FAIR      55  52  88 CALM      30.24F
BEAUFORT MCAS  CLEAR     58  58 100 E3        30.23R
BEAUFORT ARPT  FAIR      59  57  94 E5        30.22S
HILTON HEAD IS CLEAR     61  57  88 CALM      30.23S
WALTERBORO     CLEAR     55  52  88 E3        30.24S
ALLENDALE      FAIR      61  54  77 CALM      30.21S

...SOUTHERN MIDLANDS AND PEE DEE...

CITY           SKY/WX    TMP DP  RH WIND       PRES   REMARKS
GEORGETOWN     FAIR      55  55 100 CALM      30.26S
KINGSTREE      FAIR      54  52  94 CALM      30.24F
ORANGEBURG     CLEAR     60  53  77 E5        30.23S
BARNWELL       FAIR      63  57  82 CALM      30.22S
AIKEN          FAIR      61  52  72 SE7       30.24S
MANNING        FAIR      55  52  88 CALM      30.24S
COLUMBIA       CLEAR     64  52  64 SE5       30.21S
SUMTER         CLEAR     62  54  75 SE7       30.21S
FLORENCE       PTCLDY    60  54  80 S7        30.24F
MYRTLE BEACH   CLOUDY    63  57  82 SE3       30.27S
N MYRTLE BEACH CLOUDY    63  57  81 SE3       30.25F

$$

GAZ063-065-086>088-099>101-113>116-118-119-134>141-150-260400-
...SOUTHEAST GEORGIA...

CITY           SKY/WX    TMP DP  RH WIND       PRES   REMARKS
SAVANNAH ARPT  CLEAR     62  55  77 SE3       30.21S
HUNTER AAF     CLEAR     61  58  89 SE5       30.19S
FORT STEWART   CLEAR     61  55  82 E3        30.18S
STATESBORO     PTCLDY    63  57  81 CALM      30.21S
SYLVANIA       CLEAR    N/A N/A N/A SE3       30.22S
CLAXTON        FAIR     N/A N/A N/A CALM      30.20S

...CSRA...CENTRAL AND FAR SOUTHEAST GEORGIA...

CITY           SKY/WX    TMP DP  RH WIND       PRES   REMARKS
THOMSON        CLEAR     65  53  63 SW8       30.22S
AUGUSTA-BUSH   PTCLDY    67  54  63 SE8       30.19S
AUGUSTA-DANIEL PTCLDY    66  51  58 SE9       30.20S
SWAINSBORO     FAIR      64  55  72 SE12      30.19S
VIDALIA        CLOUDY    66  55  68 SE6       30.18F
EASTMAN        FAIR      68  47  48 SE7       30.18R
HAZLEHURST     FAIR      67  59  77 SE7       30.15F
ALMA           PTCLDY    65  58  78 E6        30.17S
WAYCROSS       CLEAR     67  63  85 SE6       30.17F
JESUP          FAIR      61  55  82 E3        30.19F
BAXLEY         MOCLDY    64  61  88 SE6       30.17F
BRUNSWICK      CLEAR     64  61  88 E3        30.20F
SAINT SIMONS   CLEAR     65  59  81 SE6       30.19R

$$

SCZ027-028-034-036>038-045-046-048>050-GAZ119-141-260400-
...LAKE AND SUPPLEMENTAL COASTAL OBSERVATIONS...

STATION/POSITION TIME  TEMP    WIND        PRES    WAVE   SWELL
                       AIR SEA DIR/SP/G            HT/PER HT/PER/DIR
                 (UTC) (F)     (DEG/KT/KT) (MB)    (FT/S) (FT/S/D)
WINYAH BAY       0245   62      70/  1     1024.0S
LAKE MURRAY      0250   66     140/ 10/ 13 1022.4S
ACE BASIN NERRS  0245   60     100/  1     1023.0S
FORT PULASKI     0300   64 62  130/  4/  5 1023.4
SAPELO ISLAND    0300   64     110/  4     1023.0

$$

ANZ835-935-AMZ111-154-330-350-352-354-370-450-454-472-260400-
...C-MAN AND BUOY OBSERVATIONS...

STATION/POSITION TIME  TEMP    WIND        PRES    WAVE   SWELL
                       AIR SEA DIR/SP/G            HT/PER HT/PER/DIR
                 (UTC) (F)     (DEG/KT/KT) (MB)    (FT/S) (FT/S/D)
BUOY 41004       0250   71 70  130/ 14/ 17 1023.7R   4/ 8   2/110/ 8
BUOY 41008       0250   65 62  110/  8/ 10 1022.4R   3/10   3/110/10
FOLLY BEACH CMAN 0300   63     120/  6/  6 1024.3S
CAPERS NEARSHORE 0308   64     160/  6/  8 1023.9S
FRIPP NEARSHORE  0308   63 61  110/  6/  8 1023.2R


STATION/POSITION TIME  TEMP    WIND        PRES    WAVE   SWELL
                       AIR SEA DIR/SP/G            HT/PER HT/PER/DIR
                 (UTC) (F)     (DEG/KT/KT) (MB)    (FT/S) (FT/S/D)
5E ST. MARYS GA  0300      65                N/A     4/ 8   2/110/11
FRYING PAN BUOY  0310   71 73  150/ 14/ 17 1024.8
BUOY 41025       0250   69 76  190/ 14/ 17 1025.5R   3/ 5   2/120/ 8
CAPE LOOKOUT NC  0300   67     190/ 10/ 10 1025.0S
BUOY 41002       0250   67 73   90/ 12/ 16 1026.7R   4/ 8   3/130/ 8
BUOY 41010       NOT AVBL
ST AUGUSTINE FL  0300   68 68  130/ 13/ 15 1022.7R


$$




USA.gov is the U.S. government's official web portal to all federal, state and local government web resources and services.